KO6TH-15 Weather Reports


time (UTC)temp
F
wind
direction
speed
knots
gust
knots
rain 1hr
in
rain 24hr
in
rain mn
in
humidity
%
barometer
mb
20260508153149 63 0 0.9 0.0 0.00 0.00 0.00 81
20260508152119 62 0 0.0 0.0 0.00 0.00 0.00 86
20260508151049 61 0 0.0 0.0 0.00 0.00 0.00 94
20260508150019 60 0 1.7 0.0 0.00 0.00 0.00 99
20260508144949 57 0 0.0 0.0 0.00 0.00 0.00 99
20260508143949 54 0 0.0 0.0 0.00 0.00 0.00 99
20260508142919 53 0 0.0 0.0 0.00 0.00 0.00 99
20260508141919 52 0 0.0 0.0 0.00 0.00 0.00 99
20260508140849 50 0 0.0 0.0 0.00 0.00 0.00 99
20260508135819 50 0 0.0 0.0 0.00 0.00 0.00 99
20260508134819 50 0 0.0 0.0 0.00 0.00 0.00 99
20260508133749 49 0 0.0 0.0 0.00 0.00 0.00 99
20260508132749 48 0 0.0 0.0 0.00 0.00 0.00 99
20260508131719 49 0 0.0 0.0 0.00 0.00 0.00 99
20260508130649 49 0 0.0 0.0 0.00 0.00 0.00 99
20260508125619 49 0 0.0 0.0 0.00 0.00 0.00 99
20260508124549 49 0 0.0 0.0 0.00 0.00 0.00 99
20260508123519 49 0 0.0 0.0 0.00 0.00 0.00 99
20260508122449 50 0 0.0 0.0 0.00 0.00 0.00 99
20260508121419 50 0 0.0 0.0 0.00 0.00 0.00 99
20260508120349 50 0 0.0 0.0 0.00 0.00 0.00 99
20260508115319 50 0 0.0 0.0 0.00 0.00 0.00 99
20260508114319 50 0 0.0 0.0 0.00 0.00 0.00 99
20260508113249 51 0 0.0 0.0 0.00 0.00 0.00 99
20260508112249 51 0 0.0 0.0 0.00 0.00 0.00 99
20260508111249 51 0 0.0 0.0 0.00 0.00 0.00 99
20260508110219 52 0 0.0 0.0 0.00 0.00 0.00 99
20260508105219 52 0 0.0 0.0 0.00 0.00 0.00 99
20260508104219 52 0 0.0 0.0 0.00 0.00 0.00 99
20260508103149 52 0 0.0 0.0 0.00 0.00 0.00 99
20260508102119 52 0 0.0 0.0 0.00 0.00 0.00 99
20260508101049 53 0 0.0 0.0 0.00 0.00 0.00 99
20260508100019 53 0 0.0 0.0 0.00 0.00 0.00 99
20260508094949 53 0 0.0 0.0 0.00 0.00 0.00 99
20260508093919 54 0 0.0 0.0 0.00 0.00 0.00 99
20260508092919 54 0 0.0 0.0 0.00 0.00 0.00 99
20260508091919 54 0 0.0 0.0 0.00 0.00 0.00 99
20260508090919 54 0 0.0 0.0 0.00 0.00 0.00 99
20260508085849 55 0 0.0 0.0 0.00 0.00 0.00 99
20260508084849 55 0 0.0 0.0 0.00 0.00 0.00 99
20260508083819 55 0 0.0 0.0 0.00 0.00 0.00 99
20260508082749 55 0 0.0 0.0 0.00 0.00 0.00 99
20260508081719 55 0 0.0 0.0 0.00 0.00 0.00 99
20260508080719 55 0 0.0 0.0 0.00 0.00 0.00 99
20260508075719 56 0 0.0 0.0 0.00 0.00 0.00 99
20260508074719 56 0 0.0 0.0 0.00 0.00 0.00 99
20260508073649 56 0 0.0 0.0 0.00 0.00 0.00 99
20260508072619 56 0 0.0 0.0 0.00 0.00 0.00 99
20260508071619 57 0 0.0 0.0 0.00 0.00 0.00 99
20260508070549 57 0 0.0 0.0 0.00 0.00 0.00 99
20260508065519 57 0 0.0 0.0 0.00 0.00 0.00 99
20260508064449 58 0 0.0 0.0 0.00 0.00 0.00 99
20260508063419 58 0 0.0 0.0 0.00 0.00 0.00 99
20260508062419 58 0 0.0 0.0 0.00 0.00 0.00 99
20260508061419 58 0 0.0 0.0 0.00 0.00 0.00 98
20260508060419 58 0 0.0 0.0 0.00 0.00 0.00 98
20260508055349 59 0 0.0 0.0 0.00 0.00 0.00 99
20260508054349 59 0 0.0 0.0 0.00 0.00 0.00 99
20260508053319 59 0 0.0 0.0 0.00 0.00 0.00 98
20260508052249 60 0 0.0 0.0 0.00 0.00 0.00 97
20260508051249 61 0 0.0 0.0 0.00 0.00 0.00 97
20260508050219 61 0 0.0 0.0 0.00 0.00 0.00 94
20260508045149 62 0 0.0 0.0 0.00 0.00 0.00 94
20260508044149 62 0 0.0 0.0 0.00 0.00 0.00 96
20260508043119 63 0 0.0 0.0 0.00 0.00 0.00 91
20260508042119 63 0 0.0 0.0 0.00 0.00 0.00 92
20260508041049 64 0 0.0 0.0 0.00 0.00 0.00 89
20260508040019 65 0 0.0 0.0 0.00 0.00 0.00 89
20260508034949 66 0 0.0 0.0 0.00 0.00 0.00 86
20260508033919 67 0 0.0 0.0 0.00 0.00 0.00 84
20260508032849 68 0 0.0 0.0 0.00 0.00 0.00 84
20260508031849 69 0 0.0 0.0 0.00 0.00 0.00 81
20260508030849 71 0 0.0 0.0 0.00 0.00 0.00 78
20260508025819 72 0 0.0 0.0 0.00 0.00 0.00 78
20260508024819 73 0 0.0 0.0 0.00 0.00 0.00 75
20260508023749 74 0 0.0 0.0 0.00 0.00 0.00 72
20260508022749 75 0 0.0 0.0 0.00 0.00 0.00 69
20260508021749 76 0 1.7 0.0 0.00 0.00 0.00 67
20260508020749 76 0 1.7 0.0 0.00 0.00 0.00 66
20260508015719 77 0 0.9 0.0 0.00 0.00 0.00 66
20260508014649 77 0 1.7 0.0 0.00 0.00 0.00 64
20260508013649 78 0 1.7 0.0 0.00 0.00 0.00 64
20260508012619 79 0 1.7 0.0 0.00 0.00 0.00 63
20260508011549 79 0 0.9 0.0 0.00 0.00 0.00 61
20260508010519 79 0 1.7 0.0 0.00 0.00 0.00 62
20260508005519 79 0 0.9 0.0 0.00 0.00 0.00 61
20260508004449 79 0 2.6 0.0 0.00 0.00 0.00 61
20260508003419 80 0 1.7 0.0 0.00 0.00 0.00 61
20260508002349 81 0 1.7 0.0 0.00 0.00 0.00 59
20260508001319 81 0 1.7 0.0 0.00 0.00 0.00 60
20260508000250 83 0 3.5 0.0 0.00 0.00 0.00 56
20260507235249 87 0 1.7 0.0 0.00 0.00 0.00 53
20260507234249 87 0 2.6 0.0 0.00 0.00 0.00 52
20260507233219 88 0 1.7 0.0 0.00 0.00 0.00 51
20260507232219 84 0 3.5 0.0 0.00 0.00 0.00 56
20260507231149 88 0 1.7 0.0 0.00 0.00 0.00 52
20260507230119 87 0 2.6 0.0 0.00 0.00 0.00 53
20260507225049 86 0 1.7 0.0 0.00 0.00 0.00 54
20260507224019 84 0 2.6 0.0 0.00 0.00 0.00 57
20260507222949 87 0 4.3 0.0 0.00 0.00 0.00 52
20260507221949 87 0 1.7 0.0 0.00 0.00 0.00 53
20260507220919 88 0 1.7 0.0 0.00 0.00 0.00 51
20260507215919 87 0 1.7 0.0 0.00 0.00 0.00 53
20260507214919 86 0 3.5 0.0 0.00 0.00 0.00 53
20260507213919 88 0 3.5 0.0 0.00 0.00 0.00 51
20260507212849 85 0 1.7 0.0 0.00 0.00 0.00 55
20260507211819 84 0 0.9 0.0 0.00 0.00 0.00 56
20260507210819 84 0 3.5 0.0 0.00 0.00 0.00 56
20260507205749 86 0 0.9 0.0 0.00 0.00 0.00 54
20260507204719 82 0 0.9 0.0 0.00 0.00 0.00 59
20260507203649 83 0 1.7 0.0 0.00 0.00 0.00 59
20260507202619 82 0 1.7 0.0 0.00 0.00 0.00 60
20260507201549 81 0 4.3 0.0 0.00 0.00 0.00 63
20260507200519 81 0 5.2 0.0 0.00 0.00 0.00 62
20260507195519 78 0 3.5 0.0 0.00 0.00 0.00 66
20260507194449 79 0 1.7 0.0 0.00 0.00 0.00 65
20260507193449 79 0 1.7 0.0 0.00 0.00 0.00 65
20260507192449 78 0 1.7 0.0 0.00 0.00 0.00 68
20260507191419 78 0 2.6 0.0 0.00 0.00 0.00 67
20260507190349 78 0 4.3 0.0 0.00 0.00 0.00 67
20260507185319 77 0 4.3 0.0 0.00 0.00 0.00 69
20260507184249 76 0 3.5 0.0 0.00 0.00 0.00 69
20260507183219 77 0 0.9 0.0 0.00 0.00 0.00 68
20260507182149 76 0 1.7 0.0 0.00 0.00 0.00 69
20260507181119 76 0 1.7 0.0 0.00 0.00 0.00 68
20260507180119 76 0 0.9 0.0 0.00 0.00 0.00 70
20260507175049 74 0 1.7 0.0 0.00 0.00 0.00 71
20260507174019 76 0 2.6 0.0 0.00 0.00 0.00 71
20260507172949 75 0 1.7 0.0 0.00 0.00 0.00 71
20260507171919 75 0 0.9 0.0 0.00 0.00 0.00 66
20260507170849 73 0 1.7 0.0 0.00 0.00 0.00 68
20260507165819 72 0 0.9 0.0 0.00 0.00 0.00 69
20260507164749 72 0 0.9 0.0 0.00 0.00 0.00 70
20260507163719 70 0 1.7 0.0 0.00 0.00 0.00 74
20260507162649 71 0 1.7 0.0 0.00 0.00 0.00 73
20260507161649 68 0 0.9 0.0 0.00 0.00 0.00 77
20260507160619 67 0 2.6 0.0 0.00 0.00 0.00 78
20260507155619 66 0 1.7 0.0 0.00 0.00 0.00 82
20260507154549 65 0 0.0 0.0 0.00 0.00 0.00 84